Dewpoint
70 69 67 63 56 56 53 55 60 59 55 55 55 54 56 58 57 51 67 69 71 71 72 73 73 72 73 73 73 73 72 72 73 73 72 72 72 72 72 70 70 71 70 71 71 71 71 72 72
69 67 64 63 55 52 52 57 57 58 58 56 58 58 58 58 62 64 66 69 70 72 73 73 73 73 73 73 73 73 72 72 73 72 73 72 72 72 72 72 72 71 71 71 72 71 71 72 71
67 64 62 59 55 52 51 57 58 58 57 58 58 59 59 60 63 65 67 70 71 72 72 73 74 74 73 74 73 73 72 73 72 72 72 72 71 72 70 71 71 71 71 70 71 71 71 72 71
65 63 61 57 54 55 55 58 60 60 60 60 59 58 60 63 64 65 70 71 71 72 72 74 73 72 72 73 73 73 73 73 73 72 72 72 71 72 70 70 70 69 70 71 70 70 71 71 71
66 62 57 56 56 56 59 61 63 59 59 59 58 58 60 62 65 68 69 70 71 72 73 74 74 74 73 73 73 73 72 73 73 72 72 71 71 70 71 71 70 70 69 69 69 69 70 71 71
61 61 56 53 55 59 61 62 62 60 60 58 58 58 59 62 65 66 70 71 71 72 74 74 74 74 73 73 73 73 73 72 73 72 71 72 72 71 71 70 70 70 70 70 69 69 70 70 70
59 58 54 55 56 58 61 64 60 59 59 58 59 56 59 60 62 68 69 70 72 73 73 73 73 73 73 73 73 73 73 73 73 72 73 71 71 70 70 71 70 70 70 69 69 69 69 69 70
61 59 55 55 54 55 61 61 61 58 58 59 58 55 57 60 66 68 68 70 71 72 72 72 73 73 73 73 73 73 73 73 72 72 71 71 71 70 71 71 71 70 70 70 70 70 70 70 69
61 56 52 53 54 57 61 59 64 66 62 60 62 58 59 62 65 65 67 68 69 71 72 72 72 72 73 73 73 73 73 72 72 71 70 71 70 70 70 71 71 70 70 70 70 71 70 70 69
59 55 53 55 58 57 60 59 62 62 61 59 60 59 59 62 62 64 66 66 67 68 70 71 71 72 72 72 73 73 72 72 72 71 71 70 70 70 70 70 70 70 70 70 70 71 71 70 69
57 54 55 56 59 59 59 60 61 59 60 63 61 58 59 60 61 63 64 65 65 66 69 70 71 71 71 72 72 72 72 72 71 70 70 70 70 71 71 71 71 70 71 70 70 68 68 67 69
52 51 51 56 59 60 57 61 59 62 64 66 64 58 58 56 60 60 62 63 65 65 67 69 70 70 70 72 72 72 71 72 70 69 70 69 68 69 69 70 70 69 70 68 69 68 68 69 69
48 48 50 55 59 60 61 60 59 60 64 65 62 58 58 57 59 59 60 62 65 65 65 68 69 68 69 71 71 71 71 71 69 69 70 69 67 67 69 70 69 69 69 68 66 67 68 68 66
45 43 41 57 60 60 59 59 59 58 63 63 62 58 58 57 58 58 57 59 63 63 64 67 68 68 70 70 70 69 69 70 68 68 69 68 68 68 69 68 68 68 68 69 67 67 68 68 67
41 33 32 56 59 59 59 57 57 62 64 63 62 58 58 56 57 56 55 56 61 63 65 66 67 69 69 69 68 67 67 68 68 67 65 68 70 69 70 67 68 67 68 69 67 67 69 68 66
33 31 27 52 56 59 55 53 60 62 62 62 60 58 57 56 56 57 57 58 62 63 65 65 66 68 68 67 67 68 67 67 67 68 68 70 69 68 70 68 68 69 69 69 66 67 66 65 65
31 29 26 31 54 57 55 54 59 63 62 61 60 57 57 56 56 57 56 59 61 64 65 64 66 67 66 70 67 67 68 68 68 69 69 71 69 70 68 67 68 70 68 66 63 66 64 64 64
30 29 27 25 46 55 54 56 59 61 62 60 59 57 56 55 56 56 56 60 61 63 63 65 66 66 66 68 67 66 68 68 68 68 69 71 71 68 68 66 67 66 66 66 67 62 64 63 64
29 27 26 27 28 53 54 58 58 62 59 60 60 58 56 55 56 55 56 60 61 62 62 64 66 65 66 67 67 65 66 68 69 69 69 70 70 70 70 68 69 68 65 67 65 64 65 62 63
29 28 27 26 34 43 55 57 58 61 57 59 60 59 58 56 56 55 57 60 61 61 63 63 65 65 67 66 67 67 67 68 70 69 71 70 71 71 69 70 69 67 64 68 65 62 64 65 62
31 29 28 25 44 56 55 55 58 60 57 60 61 60 60 57 56 54 58 60 60 60 63 64 65 65 68 67 68 69 68 67 68 69 69 72 70 71 70 70 70 68 66 67 65 65 65 62 63
29 26 23 20 17 29 50 46 54 55 55 60 62 61 60 58 55 55 56 60 60 59 63 65 66 66 67 67 67 68 66 64 65 68 69 70 71 71 71 70 69 68 68 68 68 69 66 63 61
29 25 20 19 18 17 37 32 41 53 54 59 61 60 60 61 57 54 55 59 60 60 62 67 67 66 67 67 66 67 67 66 65 68 68 70 71 71 71 71 70 69 68 69 68 68 69 68 67
23 19 18 20 19 16 17 13 38 50 51 58 61 59 60 59 58 55 56 58 60 62 62 67 67 66 67 67 66 65 66 67 66 66 68 69 71 71 71 71 71 70 68 69 69 70 69 68 69
20 17 15 14 14 14 18 15 12 50 51 55 59 59 58 57 58 55 55 58 59 61 63 67 67 66 66 67 68 66 66 67 67 67 68 69 70 70 71 70 71 70 70 70 70 70 71 69 69
20 17 15 13 13 17 19 15 13 22 49 53 58 57 55 57 56 56 54 56 60 60 61 66 67 66 66 66 67 69 67 66 67 68 68 68 69 70 71 71 71 71 70 71 70 70 70 70 70
13 18 20 17 19 15 17 19 21 23 38 51 52 55 55 57 55 56 55 56 60 60 61 62 67 66 66 66 65 66 69 68 67 69 68 69 69 69 71 71 71 71 71 70 71 70 70 71 70
13 16 15 18 14 13 16 18 17 30 38 50 50 55 56 57 59 57 57 56 58 61 61 62 65 66 67 66 65 65 67 69 68 67 68 69 69 69 70 72 71 71 71 71 70 70 70 71 70
13 12 13 16 17 15 15 16 28 36 36 41 51 54 54 60 60 60 60 60 59 61 62 63 63 65 67 67 66 65 65 67 70 67 66 67 69 69 69 71 71 71 71 71 71 70 69 70 69
15 15 14 13 14 20 20 19 34 36 37 44 52 53 54 59 60 60 60 61 61 59 61 63 64 64 65 67 67 66 64 65 67 69 67 66 67 69 70 71 72 71 71 71 71 70 70 70 70
Wind_Speed
11 9 3 1 0 1 2 4 3 3 7 8 20 7 10 6 1 4 18 15 23 20 15 16 16 17 16 17 18 17 17 15 14 16 15 14 14 13 13 13 13 13 12 13 14 15 15 15 15
11 6 2 1 1 3 1 4 8 14 11 22 13 17 6 5 7 16 16 22 23 19 16 16 17 17 17 18 18 18 16 15 15 15 14 14 13 13 14 11 14 14 13 14 14 14 15 15 13
11 8 1 2 3 3 4 5 12 4 18 14 7 10 6 8 20 17 23 24 23 19 16 18 18 18 17 19 19 18 16 15 16 16 14 14 13 15 15 14 15 14 14 14 14 13 13 13 12
6 4 2 2 6 6 4 12 15 10 10 11 17 11 6 8 20 17 28 25 23 19 16 19 20 19 17 15 16 16 15 16 14 14 14 14 13 14 15 14 14 14 13 13 14 13 13 14 12
2 2 3 5 4 5 6 5 16 12 8 10 5 11 17 13 24 31 27 25 25 18 17 16 19 18 18 17 17 15 16 16 15 14 13 13 13 13 14 13 13 12 12 12 12 13 13 12 11
2 2 3 5 7 7 5 9 9 18 17 17 18 17 8 26 30 26 27 24 23 20 15 17 18 19 18 17 16 17 16 16 15 14 13 13 13 13 12 12 11 12 11 11 10 11 11 11 10
2 3 4 8 6 1 9 5 5 12 17 14 16 21 18 25 26 28 26 24 23 20 16 14 14 17 18 17 17 16 16 15 15 14 13 13 13 13 13 11 11 11 11 11 11 10 10 10 10
4 2 4 4 1 2 12 9 2 16 11 17 20 14 30 24 30 26 25 22 21 20 16 15 12 13 13 15 17 16 15 15 15 15 14 14 14 14 13 11 11 10 10 10 9 10 11 10 8
4 4 6 2 1 5 11 8 5 6 11 8 3 16 29 27 30 28 25 21 19 16 16 15 15 14 13 13 15 16 16 15 14 14 13 10 10 12 11 9 11 10 9 9 8 8 9 12 11
10 6 4 4 3 6 11 12 11 9 14 12 6 21 22 35 32 30 26 24 19 20 17 16 15 15 14 11 13 12 12 11 11 11 11 8 9 9 11 10 10 9 8 8 8 7 8 9 4
10 13 9 5 10 6 6 8 3 11 14 7 12 28 25 31 30 30 27 30 28 23 20 18 17 16 14 13 13 12 12 10 10 10 9 5 8 9 8 7 6 5 5 2 2 4 7 7 4
11 19 15 4 13 10 14 8 5 4 4 8 25 31 27 30 29 28 26 24 24 23 21 19 19 17 15 13 13 13 14 12 10 10 10 12 10 5 11 7 7 4 3 3 3 3 2 2 3
18 19 15 11 21 17 14 6 6 11 7 6 19 20 24 21 28 25 27 25 24 23 21 21 19 17 15 15 12 12 13 12 10 13 13 14 11 9 7 8 8 8 4 5 5 1 5 4 7
9 14 21 20 20 16 17 9 4 3 15 7 22 25 21 19 30 25 23 25 26 24 22 19 18 17 17 14 14 14 13 14 13 11 15 12 12 11 8 5 6 7 7 8 9 8 7 5 6
15 11 13 23 20 12 19 10 3 9 12 21 22 24 21 17 30 26 23 25 29 27 21 23 19 18 19 16 15 15 14 9 15 13 14 12 12 11 8 10 4 5 7 7 6 8 6 5 6
10 4 2 13 19 11 8 8 18 14 13 10 22 23 21 16 27 23 20 26 29 24 24 22 20 18 19 16 11 12 15 13 13 11 13 12 13 14 9 9 9 5 4 4 8 7 9 7 8
6 8 11 4 25 13 6 7 13 17 15 10 20 26 22 16 16 24 20 29 28 29 26 22 20 20 19 12 11 11 11 16 16 13 14 12 13 10 10 10 8 7 6 6 6 4 11 11 7
6 5 11 11 11 13 15 10 23 18 15 16 14 25 23 21 19 19 21 30 30 28 26 24 21 20 18 11 8 9 9 11 13 14 15 13 13 11 10 9 6 6 6 4 6 6 5 7 11
10 14 19 25 13 11 26 17 28 22 19 23 19 21 24 25 24 21 25 29 30 27 23 25 23 21 17 12 10 9 11 12 12 12 14 14 13 10 7 6 4 3 5 6 8 7 4 5 6
16 18 26 21 10 13 23 21 24 25 28 18 22 25 23 25 21 23 25 26 28 28 25 24 25 24 18 16 10 5 6 6 11 14 12 14 13 13 11 10 9 7 7 7 4 5 3 3 6
18 19 26 21 6 15 15 16 22 20 7 5 10 13 12 26 22 27 29 31 29 28 25 26 24 25 19 18 10 4 7 5 5 8 9 11 11 12 11 10 8 7 7 8 5 6 7 5 1
19 18 18 10 10 2 9 3 12 11 12 14 18 21 16 19 24 27 30 29 31 29 24 25 24 23 20 19 17 12 12 11 9 14 11 13 12 11 11 10 11 10 7 8 6 5 5 5 2
20 24 15 6 6 4 7 10 7 25 17 26 26 36 36 24 22 29 31 32 31 29 25 24 25 23 20 20 17 17 11 14 10 13 15 13 14 14 14 13 11 11 8 7 7 6 6 5 3
17 8 6 5 2 2 3 6 8 19 38 30 27 33 37 35 31 33 29 30 30 27 26 25 26 25 22 21 19 21 19 13 13 16 16 15 13 15 14 14 15 13 10 9 7 6 6 6 4
5 2 4 5 1 6 5 3 7 32 25 39 44 40 37 21 26 31 31 30 30 31 29 27 28 27 25 25 22 21 22 17 16 20 18 16 16 14 17 15 15 13 13 12 10 6 6 7 5
3 8 8 6 3 3 8 4 3 12 27 33 43 42 27 19 22 33 36 33 36 35 33 31 30 28 27 26 24 20 21 18 17 17 15 18 17 17 15 18 16 15 14 12 11 10 8 5 5
4 3 4 5 3 3 5 8 9 10 8 19 26 27 31 27 26 38 38 33 33 35 35 34 31 29 29 29 25 22 20 20 18 16 17 15 16 14 15 17 17 17 16 14 13 12 11 8 7
11 7 4 2 4 11 4 4 13 20 25 12 18 21 27 26 24 34 36 34 31 32 33 34 32 33 30 28 26 25 23 19 17 18 17 18 16 14 15 17 18 17 16 15 14 13 10 11 10
13 11 7 2 6 4 4 5 5 17 19 21 8 18 21 17 21 30 29 25 24 28 30 33 33 32 29 28 27 25 24 19 15 18 20 19 15 17 19 20 19 19 19 17 16 15 12 12 12
4 11 14 7 6 2 4 3 12 11 11 14 19 14 27 22 24 25 30 31 29 28 33 33 31 31 32 30 28 27 25 24 20 19 19 19 20 17 19 19 19 19 19 18 18 19 14 15 15
Wind_Direction
177 182 200 199 57 97 262 163 272 215 149 178 163 148 136 77 108 166 138 142 134 142 149 146 136 130 129 136 142 138 130 128 128 120 121 117 119 118 113 112 110 105 112 106 108 107 106 107 106
176 164 252 322 285 189 188 158 221 267 176 121 122 107 76 89 92 125 130 138 138 140 141 136 136 131 130 138 141 138 135 135 127 125 123 116 117 112 111 109 110 107 108 109 112 109 110 109 112
170 207 243 214 253 282 203 143 245 193 134 129 110 61 75 109 118 145 133 136 132 131 134 141 139 134 137 142 145 139 138 138 131 127 124 125 122 116 109 110 112 108 117 115 115 111 111 109 106
182 195 283 262 268 280 223 134 233 264 76 72 111 83 88 124 143 134 135 132 126 133 138 140 141 141 143 140 134 137 142 132 129 126 125 122 115 116 123 119 115 114 111 108 114 111 111 110 110
275 201 263 258 279 236 232 184 189 127 99 108 117 111 120 139 122 132 134 132 129 132 137 141 144 141 143 145 144 139 136 132 129 131 123 122 122 122 118 122 115 115 116 116 115 114 114 117 107
193 255 277 298 329 176 213 173 145 109 119 113 113 115 111 128 135 135 134 133 132 133 136 136 141 140 141 138 139 136 137 139 134 129 131 121 130 130 123 118 114 112 109 114 118 118 118 114 93
219 235 275 310 93 191 151 203 131 133 126 118 134 118 130 142 139 137 133 132 131 129 130 133 140 143 140 137 139 140 142 138 133 134 128 124 127 128 129 126 120 111 104 106 107 114 106 93 90
234 264 289 330 358 57 144 157 150 129 86 116 128 139 157 156 136 132 127 129 131 132 136 138 138 135 135 140 142 141 141 139 140 139 137 134 128 127 127 124 120 113 104 97 97 100 98 96 81
228 295 295 296 168 139 160 127 105 45 150 160 92 159 160 140 134 127 125 128 129 135 140 140 140 143 139 142 146 144 144 145 145 141 136 125 123 127 127 132 122 116 108 103 107 109 106 99 103
202 227 242 158 114 131 172 151 130 134 190 165 75 157 140 144 141 138 142 144 147 151 154 154 152 153 148 151 146 143 150 156 151 150 145 126 134 136 138 135 128 126 117 121 123 112 101 102 109
201 235 232 208 159 157 126 118 32 145 188 171 182 169 144 149 149 147 154 157 161 162 157 164 161 163 159 156 157 159 162 165 163 160 155 126 146 142 122 127 119 121 119 86 101 130 101 112 55
253 240 240 301 171 156 170 127 117 69 128 267 198 180 154 158 161 154 156 157 158 162 163 166 166 172 164 165 169 172 169 182 173 160 155 133 126 149 138 148 134 137 161 148 222 343 318 359 347
256 265 249 217 162 154 144 157 175 143 159 102 174 189 168 152 164 160 167 162 160 162 166 170 171 176 167 172 176 173 187 187 179 173 161 155 139 158 134 166 160 158 196 190 214 138 314 342 351
271 287 279 156 154 151 155 162 207 140 156 170 180 194 182 161 165 171 168 158 166 164 167 171 178 171 168 170 177 180 189 198 160 169 148 150 154 145 158 177 189 167 178 201 223 218 238 257 308
262 301 310 143 153 154 138 127 119 138 173 154 187 192 188 161 168 176 171 156 166 166 160 170 174 164 176 169 179 181 188 186 158 175 164 149 151 160 186 178 194 209 138 210 203 225 225 209 226
326 307 265 157 155 165 202 160 137 188 165 166 179 192 194 186 176 174 169 154 158 153 158 162 166 165 174 172 177 181 186 191 171 174 154 148 162 170 174 162 197 227 203 186 196 172 178 205 171
12 291 296 172 179 162 208 135 157 172 179 192 179 189 193 203 187 185 162 159 158 154 157 164 159 159 161 159 155 146 163 172 175 181 164 161 152 162 164 181 180 178 180 157 196 145 164 187 207
261 317 315 290 181 161 183 164 153 171 168 157 195 193 194 204 208 182 160 162 158 160 161 162 162 167 162 157 144 141 136 151 164 177 166 161 162 157 146 161 163 126 133 119 159 142 185 179 191
271 286 282 285 276 180 190 156 165 171 180 171 198 197 197 201 210 183 164 168 160 163 162 162 164 173 166 166 168 163 148 159 178 189 165 171 164 161 150 154 159 162 131 102 133 121 179 165 193
259 267 274 283 306 200 183 165 161 178 191 199 190 190 200 202 206 179 161 167 165 167 169 168 172 171 175 173 180 165 151 151 178 184 171 178 165 169 163 170 180 172 136 110 118 130 87 84 153
255 253 264 266 74 66 144 148 178 208 170 214 214 196 223 210 200 184 163 170 172 172 170 173 173 173 179 176 165 125 97 107 162 172 192 198 178 180 168 166 167 156 162 146 127 123 124 118 213
265 252 259 292 14 246 167 335 228 187 217 201 186 186 209 227 198 177 172 174 175 179 174 171 172 175 179 184 181 181 186 183 196 191 190 197 196 192 175 171 169 169 161 168 156 147 130 115 115
245 260 265 306 327 93 173 175 208 169 193 207 196 190 200 223 205 188 182 176 178 178 175 172 173 177 178 189 195 195 197 206 198 192 190 196 205 201 188 175 173 172 182 177 166 160 158 128 176
242 261 328 66 73 323 185 194 203 182 205 195 204 201 200 202 198 193 181 178 178 180 177 173 174 181 183 187 199 199 211 210 202 197 200 201 206 208 202 181 181 180 176 182 184 182 160 168 160
182 88 302 305 208 221 297 8 255 211 209 189 199 207 208 200 192 191 180 179 179 180 182 178 177 183 187 191 200 203 212 216 210 197 198 198 206 205 206 197 187 186 187 187 184 189 194 194 187
328 183 195 211 245 8 358 211 234 235 207 195 192 205 201 197 206 190 190 176 182 184 185 182 182 184 187 192 201 201 210 218 215 205 195 201 204 207 198 202 197 194 192 188 187 193 205 202 195
304 248 181 231 125 312 282 320 313 22 291 204 195 188 195 195 200 190 189 183 184 186 188 186 185 186 188 192 199 208 209 215 217 210 200 202 206 202 195 198 202 197 198 197 191 196 202 209 217
35 306 267 59 239 229 274 336 276 21 356 233 203 200 199 193 182 185 188 189 186 187 190 187 187 187 189 193 197 204 214 217 212 210 214 212 213 204 198 198 202 201 203 204 201 204 209 201 218
352 15 352 346 147 167 200 234 70 72 44 30 308 223 219 196 181 173 173 180 185 183 187 192 189 189 188 194 197 202 211 219 217 211 215 219 222 216 209 203 197 199 204 206 208 215 215 220 229
137 51 36 21 327 92 114 286 71 71 33 21 4 273 202 191 186 172 173 183 186 186 186 189 193 193 191 192 196 202 204 211 223 224 219 215 213 217 213 199 196 195 202 206 210 216 215 222 230